CUTE-1 (CO-55) 1 27844U 03031E 26118.44155339 .00000338 00000+0 16545-3 0 9991 2 27844 98.6755 127.6241 0008981 337.1578 22.9201 14.24303971184597 CUBESAT XI-IV (CO-57) 1 27848U 03031J 26118.47542356 .00000276 00000+0 14017-3 0 9990 2 27848 98.6788 127.4103 0009274 356.1304 3.9802 14.23593384184309 CUBESAT XI-V 1 28895U 05043F 26118.39179343 .00001607 00000+0 26109-3 0 9995 2 28895 98.2926 272.9883 0014110 9.0083 351.1375 14.72497418 94427 CUTE-1.7+APD II (CO-65) 1 32785U 08021C 26118.45626166 .00004924 00000+0 31568-3 0 9994 2 32785 97.8251 98.8682 0008596 185.7983 174.3147 15.08972217977696 CANX-2 1 32790U 08021H 26118.43745946 .00004014 00000+0 28528-3 0 9998 2 32790 97.8599 97.2723 0009653 204.5807 155.4960 15.05249648977321 SEEDS II (CO-66) 1 32791U 08021J 26118.42572265 .00017613 00000+0 58934-3 0 9993 2 32791 97.7522 114.0178 0005047 112.4687 247.7087 15.31027972979673 SWISSCUBE 1 35932U 09051B 26118.49593561 .00001177 00000+0 24258-3 0 9996 2 35932 98.4066 25.5156 0007250 18.3805 341.7657 14.62382142881890 BEESAT-1 1 35933U 09051C 26118.27440539 .00000965 00000+0 20380-3 0 9995 2 35933 98.3995 25.0293 0006033 34.1702 325.9885 14.61635863881895 ITUPSAT1 1 35935U 09051E 26118.22171962 .00000902 00000+0 19645-3 0 9996 2 35935 98.4081 24.2201 0008383 41.1416 319.0414 14.60362584881443 TISAT 1 1 36799U 10035E 26118.37046462 .00020686 00000+0 71841-3 0 9998 2 36799 98.0686 60.5881 0004542 77.5841 282.5906 15.29793320860083 AEROCUBE 4.5A 1 38767U 12048K 26118.36054678 .00150668 00000+0 10337-2 0 9994 2 38767 64.6325 205.7194 0024082 214.9005 145.0569 15.73618517364775 STRAND-1 1 39090U 13009E 26118.48481529 .00000328 00000+0 12463-3 0 9994 2 39090 98.3914 299.9451 0009109 27.3160 332.8504 14.37133059689929 BRITE-AUSTRIA 1 39091U 13009F 26118.40675049 .00000200 00000+0 82706-4 0 9996 2 39091 98.3985 299.0772 0010816 34.8440 325.3453 14.36521532689900 NEE-01 PEGASO 1 39151U 13018B 26118.35324065 .00003307 00000+0 32030-3 0 9991 2 39151 98.1147 260.8854 0011821 334.2136 25.8491 14.93413306703260 POPACS 2 1 39269U 13055E 26118.23476855 .00017231 00000+0 29468-3 0 9996 2 39269 80.9943 201.3216 0421756 354.4131 5.2445 14.89988540655771 POPACS 3 1 39270U 13055F 26118.41565875 .00010543 00000+0 25506-3 0 9997 2 39270 80.9995 283.1080 0555477 221.3798 134.4058 14.54885022631318 ZACUBE-1 (TSHEPISOSAT) 1 39417U 13066B 26118.34269084 .00005627 00000+0 43931-3 0 9996 2 39417 97.8120 80.4116 0043957 60.0105 300.5470 15.00771745673252 WNISAT-1 1 39423U 13066H 26118.38841255 .00000694 00000+0 13455-3 0 9990 2 39423 97.7135 271.0986 0163823 29.2344 331.7903 14.58001973659470 TRITON-1 1 39427U 13066M 26118.52176875 .00004097 00000+0 49311-3 0 9990 2 39427 97.8278 29.4615 0091512 37.0450 323.7034 14.81465141666737 GOMX-1 1 39430U 13066Q 26118.54184229 .00001957 00000+0 30082-3 0 9995 2 39430 97.6527 322.1317 0127638 236.6696 122.2238 14.69269523662620 CUBEBUG-2 (LO-74) 1 39440U 13066AA 26118.41963050 .00003418 00000+0 32083-3 0 9996 2 39440 97.8877 67.2136 0057509 190.7698 169.2294 14.93408037669563 NEE-02 KRYSAOR 1 39441U 13066AB 26118.26308774 .00001953 00000+0 21929-3 0 9995 2 39441 97.8868 57.8495 0065020 232.7427 126.7847 14.86437572668784 FUNCUBE-1 (AO-73) 1 39444U 13066AE 26118.39495830 .00009710 00000+0 61182-3 0 9996 2 39444 97.8245 88.8364 0037233 16.1614 344.0792 15.08788543672154 UWE-3 1 39446U 13066AG 26118.34555801 .00004476 00000+0 38804-3 0 9997 2 39446 97.8658 74.1127 0050810 124.8664 235.7350 14.96606160670128 BRITE-CA1 (TORONTO) 1 40020U 14033L 26118.30145551 .00001115 00000+0 17444-3 0 9999 2 40020 97.9661 248.1730 0080025 76.9578 284.0548 14.72602334634879 DUCHIFAT-1 1 40021U 14033M 26118.11772857 .00080929 00000+0 11442-2 0 9995 2 40021 98.0534 170.6088 0004400 227.5331 132.5550 15.56251263647946 NANOSATC-BR1 1 40024U 14033Q 26118.06360012 .00018489 00000+0 64133-3 0 9996 2 40024 98.0770 146.0660 0003516 29.8922 330.2517 15.29862509646311 QB50P1 1 40025U 14033R 26117.98206277 .00010357 00000+0 52019-3 0 9995 2 40025 98.0983 125.6366 0009953 47.0702 313.1363 15.17457446645419 QB50P2 1 40032U 14033Y 26118.42629855 .00006890 00000+0 37795-3 0 9995 2 40032 98.0751 112.2379 0007192 0.2689 359.8544 15.14501758645134 PERSEUS-M2 1 40037U 14033AD 26118.48168870 .00002700 00000+0 24982-3 0 9991 2 40037 97.9928 68.0271 0013581 102.2305 258.0437 14.95356166643351 PERSEUS-M1 1 40039U 14033AF 26118.39157907 .00002488 00000+0 23005-3 0 9990 2 40039 97.9617 61.7229 0013235 101.1554 259.1154 14.95461739643194 POLYITAN-1 1 40042U 14033AJ 26118.03216416 .00020272 00000+0 66730-3 0 9999 2 40042 98.0989 139.6123 0005933 336.3434 23.7532 15.31528452645919 TIGRISAT 1 40043U 14033AK 26118.38990825 .00002436 00000+0 28650-3 0 9992 2 40043 97.7761 269.5678 0048324 237.0307 122.6258 14.84945597638230 AEROCUBE 6A 1 40045U 14033AM 26118.45390912 .00006880 00000+0 58567-3 0 9990 2 40045 97.7180 285.9656 0039154 180.8925 179.2234 14.97517183639173 AEROCUBE 6B 1 40046U 14033AN 26118.43724606 .00006783 00000+0 55734-3 0 9995 2 40046 97.7181 285.6407 0037138 171.9582 188.2244 14.98952089639301 CANX-4 1 40055U 14034C 26118.23036675 .00001025 00000+0 13897-3 0 9994 2 40055 98.3192 351.6947 0012992 166.0914 194.0657 14.81171192637130 CANX-5 1 40056U 14034D 26118.36448396 .00001038 00000+0 14064-3 0 9997 2 40056 98.3194 351.8745 0013002 165.8672 194.2905 14.81188526627969 UKUBE-1 1 40074U 14037F 26118.43940867 .00008324 00000+0 47891-3 0 9997 2 40074 98.4242 116.5194 0001679 45.1282 315.0083 15.12754064641037 BRITE-PL2 (HEWELIUSZ) 1 40119U 14049B 26118.55978081 .00001797 00000+0 17220-3 0 9992 2 40119 97.9037 230.2005 0012684 274.5545 85.4226 14.94404709634032 AEROCUBE 5C 1 40965U 15058B 26118.54687677 .00003718 00000+0 33305-3 0 9996 2 40965 64.7683 56.9818 0129610 82.7624 278.8201 14.91155765358250 AEROCUBE 7 1 40966U 15058C 26118.21511921 .00005282 00000+0 42792-3 0 9997 2 40966 64.7641 41.2894 0119483 81.6716 279.7924 14.95311268358486 FOX-1A (AO-85) 1 40967U 15058D 26118.30981024 .00003951 00000+0 35848-3 0 9998 2 40967 64.7751 73.9482 0128592 76.1386 285.3993 14.90657451106131 SINOD-D 1 1 40968U 15058E 26118.53335499 .00005707 00000+0 46156-3 0 9998 2 40968 64.7762 54.3580 0117099 72.9263 288.4639 14.95486054109233 SNAP-3 ALICE 1 40970U 15058G 26118.40018797 .00078292 00000+0 12945-2 0 9993 2 40970 64.7529 274.7429 0031530 42.4173 317.9397 15.51202879109147 LMRST-SAT 1 40971U 15058H 26118.25254661 .00003817 00000+0 34868-3 0 9999 2 40971 64.7760 70.3702 0130449 78.1842 283.3867 14.90285298106117 SNAP-3 EDDIE 1 40972U 15058J 26117.84778262 .00086781 00000+0 13795-2 0 9998 2 40972 64.7455 267.7052 0032136 46.6693 313.7120 15.52233439111190 PROPCUBE 3 1 40973U 15058K 26118.20897108 .00004725 00000+0 39615-3 0 9999 2 40973 64.7700 48.6420 0122736 79.7567 281.7360 14.93892506107333 BISONSAT 1 40974U 15058L 26118.21675374 .00012920 00000+0 64527-3 0 9996 2 40974 64.7616 335.0683 0077799 69.6120 291.3338 15.15114012108040 SNAP-3 JIMI 1 40975U 15058M 26118.45359564 .00007272 00000+0 50682-3 0 9994 2 40975 64.7676 17.0613 0104745 75.9351 285.3382 15.01747847106756 PROPCUBE 1 (FLORA) 1 40976U 15058N 26118.36311005 .00003392 00000+0 32377-3 0 9993 2 40976 64.7738 89.6170 0129303 80.4144 281.1550 14.88926653108848 SINOD-D 3 1 40977U 15058P 26118.29880052 .00005007 00000+0 42692-3 0 9995 2 40977 64.7726 71.5551 0117778 78.0143 283.4143 14.93611395107307 HORYU-4 1 41340U 16012D 26118.17498287 .00146179 00000+0 97694-3 0 9991 2 41340 30.9891 79.1787 0006353 260.1112 99.8826 15.73742630562882 RAVAN 1 41849U 16067B 26118.21476613 .00043266 00000+0 76391-3 0 9993 2 41849 97.9960 2.1908 0006357 158.9723 201.1789 15.50231875519947 CELTEE 1 1 41850U 16067C 26118.55193448 .00005881 00000+0 28318-3 0 9991 2 41850 98.0744 341.7357 0002331 76.6948 283.4544 15.19185569518342 OPTICUBE 04 1 41851U 16067D 26118.36445663 .00002182 00000+0 14056-3 0 9995 2 41851 98.0758 328.0417 0014227 288.0140 71.9537 15.09447354517650 AEROCUBE 8D 1 41852U 16067E 26118.12507643 .00008581 00000+0 36079-3 0 9995 2 41852 98.0759 344.4984 0002399 331.8070 28.3035 15.23689411518444 AEROCUBE 8C 1 41853U 16067F 26118.35494597 .00008095 00000+0 33814-3 0 9998 2 41853 98.0627 342.0385 0004256 220.4871 139.6048 15.23927211518470 CORVUS BC2 1 42846U 17042X 26118.43325170 .00003311 00000+0 23114-3 0 9992 2 42846 97.4017 281.7437 0011372 283.8480 76.1482 15.05976582479571 CORVUS BC1 1 42847U 17042Y 26118.43349257 .00002875 00000+0 20038-3 0 9991 2 42847 97.4049 282.5250 0010289 256.6353 103.3728 15.06144519479600 MAKERSAT 0 1 43016U 17073D 26118.11621465 .00025681 00000+0 72693-3 0 9997 2 43016 97.4704 0.3101 0113941 91.0450 270.3847 15.29919856458801 SIRION PATHFINDER-2 1 43759U 18099B 26118.09414490 .00006399 00000+0 35472-3 0 9994 2 43759 97.4300 168.3482 0010437 111.2886 248.9461 15.14079177405046 CORVUS BC4 1 43767U 18099K 26118.36441838 .00004177 00000+0 24623-3 0 9997 2 43767 97.4116 162.8068 0008925 162.5827 197.5712 15.12081773404873 M2 PATHFINDER 1 45727U 20037E 26118.49978586 .00001859 00000+0 13740-3 0 9991 2 45727 97.8158 309.1768 0010657 327.6681 32.3891 15.04451587318021 NETSAT-4 1 46504U 20068U 26118.44947536 .00017845 00000+0 41728-3 0 9994 2 46504 97.8622 122.7593 0007360 127.6199 232.5715 15.42198524308103 NETSAT-3 1 46505U 20068V 26118.41647012 .00018242 00000+0 44453-3 0 9998 2 46505 97.8666 121.0062 0006802 140.3593 219.8151 15.40952302308017 NETSAT-1 1 46506U 20068W 26118.43001574 .00012520 00000+0 38995-3 0 9995 2 46506 97.8750 115.9208 0005540 160.3481 199.7975 15.33417108307675 NETSAT-2 1 46507U 20068X 26118.48577146 .00021879 00000+0 48310-3 0 9993 2 46507 97.8635 122.5299 0005246 145.2997 214.8593 15.43882649308065 GREENCUBE (IO-117) 1 53109U 22080E 26116.97992185 -.00000003 00000+0 00000+0 0 9998 2 53109 70.1458 316.0629 0008819 301.5581 58.4217 6.42583360 88775 SITRO-AIS 5 (KATYS) 1 57176U 23091L 26118.52410278 .00012374 00000+0 45047-3 0 9997 2 57176 97.5099 181.9873 0009931 276.9681 83.0429 15.28319234156753 SITRO-AIS 6 (CHIRKIN) 1 57192U 23091AC 26118.52345603 .00006712 00000+0 27080-3 0 9990 2 57192 97.5106 181.3599 0010289 282.0469 77.9615 15.25092871156716 SITRO-AIS 8 (ANOKHIN) 1 57193U 23091AD 26118.49392554 .00013571 00000+0 45758-3 0 9997 2 57193 97.5093 183.3519 0009134 272.3354 87.6841 15.30807840156847 SITRO-AIS 7 (FARTUSHNIY) 1 57194U 23091AE 26118.51684410 .00006182 00000+0 25180-3 0 9993 2 57194 97.5103 181.2029 0010121 283.0209 76.9898 15.24806373156700 SITRO-AIS 10 (BURDAEV) 1 57199U 23091AK 26118.46539329 .00019496 00000+0 54447-3 0 9990 2 57199 97.5112 187.8870 0005735 239.8846 120.1830 15.36741614157126 SITRO-AIS 9 (SHCHUKIN) 1 57201U 23091AM 26118.47686273 .00019365 00000+0 54848-3 0 9996 2 57201 97.5111 187.6656 0005965 240.8171 119.2476 15.36301579157113 SITRO-AIS 12 (SMIRENNIY) 1 57204U 23091AQ 26118.47670573 .00019089 00000+0 53601-3 0 9994 2 57204 97.5123 188.1022 0005757 233.4433 126.6282 15.36576683157139 SITRO-AIS 11 (SHEFFER) 1 57208U 23091AU 26118.50313236 .00018675 00000+0 51802-3 0 9993 2 57208 97.5121 188.3460 0005699 232.4120 127.6607 15.36962005157157 SITRO-AIS 25 1 59066U 24039R 26118.52274773 .00006238 00000+0 48603-3 0 9991 2 59066 95.3930 200.9721 0147250 141.0909 220.1027 14.93116703117313 SITRO-AIS 26 1 59067U 24039S 26118.51749444 .00006714 00000+0 52518-3 0 9992 2 59067 95.3929 200.8760 0147594 141.6274 219.5563 14.92922547117302 SITRO-AIS 27 1 59068U 24039T 26118.50148381 .00006626 00000+0 51401-3 0 9997 2 59068 95.3925 201.1139 0146665 140.4504 220.7535 14.93325775117320 SITRO-AIS 28 1 59071U 24039U 26118.54708106 .00005721 00000+0 44407-3 0 9995 2 59071 95.3928 201.1901 0146399 140.1790 221.0290 14.93363237117330 GRBBETA 1 60237U 24128C 26118.30420248 .00004540 00000+0 31507-3 0 9997 2 60237 61.9918 31.2248 0046880 124.1796 236.3754 15.06229760 98757 OOV-CUBE (TUBSAT-30) 1 60240U 24128F 26118.47963382 .00002653 00000+0 20921-3 0 9991 2 60240 61.9965 38.8667 0050323 122.8492 237.7458 15.02520901 98647 ROBUSTA-3A (MEDITERRAN*) 1 60243U 24128J 26118.44536898 .00008844 00000+0 52700-3 0 9997 2 60243 61.9886 24.0423 0047618 117.9999 242.5925 15.10890640 98900 LASARSAT 1 62391U 24247Q 26118.18382741 .00029344 00000+0 64906-3 0 9991 2 62391 44.9746 182.5282 0005272 7.2574 352.8391 15.43338157 75582 CROCUBE 1 62394U 24247T 26118.17120934 .00033308 00000+0 69923-3 0 9996 2 62394 44.9717 180.6527 0004989 5.1894 354.9046 15.44826652 75606 FORESAIL-1 PRIME 1 66778U 25276DS 26118.17750697 .00005038 00000+0 24941-3 0 9994 2 66778 97.4219 192.3771 0000787 291.6127 68.5024 15.18233653 22813 KNACKSAT-2 1 67683U 98067XZ 26118.44026888 .00037603 00000+0 53648-3 0 9995 2 67683 51.6295 183.8755 0012529 13.5417 346.5908 15.55824780 12527